When you browse on this site, cookies collect data to enhance your experience and personalize the content and advertising you see.
Visit our Privacy Policy to learn more. By continuing to use the site, you agree to this use of cookies and data.
  • In Romania
  • List of Countries
  • For 7 days
  • Water Temperature
  • Weather Map
  • Weather Widgets
  • user-avatar
    Login

    Hourly Weather Świętochłowice

    Today, 26 August, Monday

    Time Temperature Precipitation Wind Pressure Humidity
    00:00 +21°C° 0 mm 2 mps 740 mmHg 84%
    01:00 +21°C° 0 mm 2 mps 740 mmHg 86%
    02:00 +20°C° 0 mm 2 mps 740 mmHg 87%
    03:00 +20°C° 0 mm 2 mps 740 mmHg 88%
    04:00 +19°C° 0 mm 2 mps 740 mmHg 90%
    05:00 +20°C° 0 mm 2 mps 740 mmHg 85%
    06:00 +21°C° 0 mm 2 mps 740 mmHg 81%
    07:00 +23°C° 0 mm 2 mps 740 mmHg 77%
    08:00 +25°C° 0 mm 2 mps 740 mmHg 68%
    09:00 +27°C° 0 mm 2 mps 740 mmHg 59%
    10:00 +29°C° 0 mm 2 mps 740 mmHg 51%
    11:00 +30°C° 0 mm 2 mps 740 mmHg 47%
    12:00 +31°C° 0 mm 2 mps 740 mmHg 43%
    13:00 +32°C° 0 mm 2 mps 740 mmHg 39%
    14:00 +32°C° 0 mm 2 mps 740 mmHg 40%
    15:00 +33°C° 0 mm 3 mps 740 mmHg 42%
    16:00 +33°C° 0 mm 3 mps 739 mmHg 43%
    17:00 +30°C° 0 mm 3 mps 739 mmHg 50%
    18:00 +28°C° 0 mm 3 mps 739 mmHg 57%
    19:00 +27°C° 0 mm 3 mps 739 mmHg 64%
    20:00 +26°C° 0 mm 3 mps 739 mmHg 68%
    21:00 +25°C° 0 mm 3 mps 739 mmHg 72%
    22:00 +25°C° 0 mm 3 mps 739 mmHg 75%
    23:00 +24°C° 0 mm 2 mps 739 mmHg 77%

    Tomorrow, 27 August, Tuesday

    Time Temperature Precipitation Wind Pressure Humidity
    00:00 +23°C° 0 mm 2 mps 739 mmHg 79%
    01:00 +23°C° 0 mm 2 mps 739 mmHg 81%
    02:00 +23°C° 0 mm 2 mps 739 mmHg 81%
    03:00 +21°C° 0 mm 2 mps 739 mmHg 81%
    04:00 +22°C° 0 mm 1 mps 739 mmHg 81%
    05:00 +23°C° 0 mm 2 mps 739 mmHg 77%
    06:00 +23°C° 0 mm 2 mps 739 mmHg 74%
    07:00 +24°C° 0 mm 2 mps 739 mmHg 70%
    08:00 +26°C° 0 mm 2 mps 739 mmHg 63%
    09:00 +28°C° 0 mm 2 mps 740 mmHg 55%
    10:00 +30°C° 0 mm 2 mps 740 mmHg 48%
    11:00 +31°C° 0 mm 2 mps 740 mmHg 44%
    12:00 +32°C° 0 mm 2 mps 740 mmHg 40%
    13:00 +34°C° 0 mm 3 mps 740 mmHg 36%
    14:00 +34°C° 0 mm 3 mps 739 mmHg 37%
    15:00 +34°C° 0 mm 3 mps 739 mmHg 38%
    16:00 +34°C° 0 mm 3 mps 739 mmHg 39%
    17:00 +31°C° 0 mm 3 mps 739 mmHg 47%
    18:00 +29°C° 0 mm 4 mps 739 mmHg 54%
    19:00 +28°C° 0 mm 4 mps 739 mmHg 62%
    20:00 +26°C° 0.5 mm 3 mps 739 mmHg 67%
    21:00 +25°C° 0.5 mm 2 mps 739 mmHg 72%
    22:00 +24°C° 0.5 mm 2 mps 739 mmHg 77%
    23:00 +23°C° 0.1 mm 2 mps 739 mmHg 78%

    Day after tomorrow, 28 August, Wednesday

    Time Temperature Precipitation Wind Pressure Humidity
    00:00 +23°C° 0.1 mm 2 mps 739 mmHg 79%
    01:00 +23°C° 0.1 mm 2 mps 739 mmHg 80%
    02:00 +21°C° 0 mm 2 mps 739 mmHg 80%
    03:00 +22°C° 0 mm 1 mps 738 mmHg 80%
    04:00 +22°C° 0 mm 1 mps 738 mmHg 81%
    05:00 +23°C° 0 mm 1 mps 738 mmHg 78%
    06:00 +24°C° 0 mm 1 mps 738 mmHg 75%
    07:00 +25°C° 0 mm 2 mps 738 mmHg 72%
    08:00 +27°C° 0 mm 2 mps 738 mmHg 63%
    09:00 +29°C° 0 mm 2 mps 738 mmHg 54%
    10:00 +31°C° 0 mm 2 mps 738 mmHg 46%
    11:00 +32°C° 0 mm 2 mps 738 mmHg 42%
    12:00 +34°C° 0 mm 2 mps 738 mmHg 38%
    13:00 +35°C° 0 mm 2 mps 738 mmHg 34%
    14:00 +35°C° 0 mm 2 mps 738 mmHg 34%
    15:00 +35°C° 0 mm 2 mps 738 mmHg 34%
    16:00 +34°C° 0 mm 2 mps 737 mmHg 35%
    17:00 +31°C° 0.1 mm 2 mps 737 mmHg 42%
    18:00 +30°C° 0.1 mm 2 mps 737 mmHg 49%
    19:00 +28°C° 0.1 mm 2 mps 737 mmHg 56%
    20:00 +27°C° 0.6 mm 2 mps 737 mmHg 60%
    21:00 +25°C° 0.6 mm 2 mps 737 mmHg 64%
    22:00 +24°C° 0.6 mm 2 mps 737 mmHg 68%
    23:00 +24°C° 0.2 mm 2 mps 737 mmHg 69%

    29 August, Thursday

    Time Temperature Precipitation Wind Pressure Humidity
    00:00 +24°C° 0.2 mm 2 mps 737 mmHg 70%
    01:00 +23°C° 0.2 mm 2 mps 737 mmHg 71%
    02:00 +23°C° 0.1 mm 2 mps 737 mmHg 72%
    03:00 +21°C° 0.1 mm 2 mps 737 mmHg 73%
    04:00 +21°C° 0.1 mm 2 mps 737 mmHg 74%
    05:00 +23°C° 0 mm 2 mps 736 mmHg 71%
    06:00 +24°C° 0 mm 2 mps 736 mmHg 68%
    07:00 +25°C° 0 mm 2 mps 736 mmHg 66%
    08:00 +27°C° 0 mm 2 mps 737 mmHg 58%
    09:00 +29°C° 0 mm 2 mps 737 mmHg 51%
    10:00 +31°C° 0 mm 2 mps 737 mmHg 43%
    11:00 +32°C° 0 mm 2 mps 737 mmHg 39%
    12:00 +34°C° 0 mm 2 mps 737 mmHg 36%
    13:00 +35°C° 0 mm 2 mps 737 mmHg 32%
    14:00 +34°C° 0.1 mm 3 mps 736 mmHg 36%
    15:00 +33°C° 0.1 mm 3 mps 736 mmHg 41%
    16:00 +31°C° 0.1 mm 3 mps 736 mmHg 45%
    17:00 +28°C° 1 mm 4 mps 736 mmHg 56%
    18:00 +26°C° 1 mm 4 mps 736 mmHg 67%
    19:00 +22°C° 1 mm 5 mps 736 mmHg 77%
    20:00 +22°C° 0.8 mm 4 mps 736 mmHg 77%
    21:00 +21°C° 0.8 mm 3 mps 737 mmHg 77%
    22:00 +21°C° 0.8 mm 2 mps 737 mmHg 77%
    23:00 +21°C° 0.1 mm 2 mps 737 mmHg 77%

    30 August, Friday

    Time Temperature Precipitation Wind Pressure Humidity
    00:00 +21°C° 0.1 mm 2 mps 736 mmHg 78%
    01:00 +21°C° 0.1 mm 2 mps 736 mmHg 78%
    02:00 +21°C° 0 mm 2 mps 736 mmHg 80%
    03:00 +21°C° 0 mm 2 mps 737 mmHg 81%
    04:00 +20°C° 0 mm 2 mps 737 mmHg 83%
    05:00 +21°C° 0.1 mm 2 mps 737 mmHg 83%
    06:00 +21°C° 0.1 mm 2 mps 737 mmHg 83%
    07:00 +23°C° 0.1 mm 2 mps 738 mmHg 83%
    08:00 +24°C° 0.2 mm 3 mps 738 mmHg 78%
    09:00 +25°C° 0.2 mm 3 mps 738 mmHg 73%
    10:00 +26°C° 0.2 mm 3 mps 739 mmHg 68%
    11:00 +26°C° 1.1 mm 3 mps 739 mmHg 68%
    12:00 +27°C° 1.1 mm 4 mps 739 mmHg 67%
    13:00 +27°C° 1.1 mm 4 mps 738 mmHg 66%
    14:00 +26°C° 0.9 mm 4 mps 738 mmHg 67%
    15:00 +26°C° 0.9 mm 3 mps 738 mmHg 67%
    16:00 +26°C° 0.9 mm 3 mps 738 mmHg 68%
    17:00 +25°C° 0.1 mm 3 mps 738 mmHg 72%
    18:00 +24°C° 0.1 mm 2 mps 739 mmHg 75%
    19:00 +23°C° 0.1 mm 2 mps 739 mmHg 78%
    20:00 +21°C° 0.1 mm 2 mps 739 mmHg 79%
    21:00 +21°C° 0.1 mm 2 mps 739 mmHg 80%
    22:00 +20°C° 0.1 mm 2 mps 739 mmHg 81%
    23:00 +20°C° 0 mm 2 mps 739 mmHg 83%

    31 August, Saturday

    Time Temperature Precipitation Wind Pressure Humidity
    00:00 +20°C° 0 mm 2 mps 739 mmHg 85%
    01:00 +19°C° 0 mm 2 mps 739 mmHg 86%
    02:00 +20°C° 0 mm 1 mps 739 mmHg 88%
    03:00 +20°C° 0 mm 1 mps 738 mmHg 89%
    04:00 +20°C° 0 mm 1 mps 738 mmHg 90%
    05:00 +20°C° 0 mm 1 mps 738 mmHg 87%
    06:00 +21°C° 0 mm 1 mps 738 mmHg 85%
    07:00 +21°C° 0 mm 1 mps 739 mmHg 83%
    08:00 +21°C° 0 mm 2 mps 739 mmHg 76%
    09:00 +24°C° 0 mm 2 mps 739 mmHg 70%
    10:00 +25°C° 0 mm 2 mps 739 mmHg 63%
    11:00 +26°C° 0 mm 2 mps 739 mmHg 60%
    12:00 +27°C° 0 mm 2 mps 739 mmHg 56%
    13:00 +27°C° 0 mm 2 mps 738 mmHg 53%
    14:00 +27°C° 0 mm 2 mps 738 mmHg 54%
    15:00 +27°C° 0 mm 2 mps 738 mmHg 54%
    16:00 +27°C° 0 mm 2 mps 737 mmHg 55%
    17:00 +26°C° 0 mm 2 mps 737 mmHg 62%
    18:00 +25°C° 0 mm 2 mps 737 mmHg 69%
    19:00 +23°C° 0 mm 2 mps 737 mmHg 76%
    20:00 +23°C° 0 mm 2 mps 737 mmHg 79%
    21:00 +21°C° 0 mm 2 mps 737 mmHg 82%
    22:00 +22°C° 0 mm 1 mps 737 mmHg 84%
    23:00 +21°C° 0 mm 1 mps 737 mmHg 85%
    Show more